Regional Weather Roundup
Issued by NWS

Home | Current Version | Previous Version | Text Only | Print | Product List | Glossary Off
Versions: 1 2 3 4 5 6 7 8 9 10 11 12 13 14 15 16 17 18 19 20 21 22 23 24 25 26 27 28 29 30 31 32 33 34 35 36 37 38 39 40 41 42 43 44 45 46 47 48 49 50

208
ASUS43 KLOT 200608
RWRIL

ILLINOIS REGIONAL WEATHER ROUNDUP
NATIONAL WEATHER SERVICE CHICAGO/ROMEOVILLE IL
100 AM CDT WED SEP 20 2017

NOTE: "FAIR" INDICATES FEW OR NO CLOUDS BELOW 12,000 FEET WITH NO
SIGNIFICANT WEATHER AND/OR OBSTRUCTIONS TO VISIBILITY.

* THESE STATIONS ARE NOT UNDER NWS QUALITY CONTROL. THEY ALSO MAY NOT
  REPORT WEATHER SUCH AS PRECIPITATION OR FOG.

ILZ001-002-007-009-015-016-024-200700-
NORTHWEST ILLINOIS

CITY           SKY/WX    TMP DP  RH WIND       PRES   REMARKS
MOLINE         CLEAR     69  63  81 SE8       29.83F
6HR MIN TEMP:  66; 6HR MAX TEMP:  75;

STERLING*        N/A     64  63  96 E7        29.88F FOG
SAVANNA*       CLEAR     67  64  90 SE7       29.86F
$$

ILZ003-004-008-010-011-017-018-200700-
NORTH CENTRAL ILLINOIS

CITY           SKY/WX    TMP DP  RH WIND       PRES   REMARKS
ROCKFORD       CLEAR     63  61  93 SE7       29.92S
6HR MIN TEMP:  63; 6HR MAX TEMP:  73;

FREEPORT*      CLEAR     62  61  97 E5        29.91F FOG
ROCHELLE*      CLEAR     63  62  97 SE8       29.91F FOG
DE KALB*       CLEAR     62  61  96 SE7       29.92F FOG
PERU*          CLEAR     66  63  90 E8        29.90S
$$

ILZ005-006-012>014-019>023-200700-
NORTHEAST ILLINOIS

CITY           SKY/WX    TMP DP  RH WIND       PRES   REMARKS
CHICAGO-OHARE  CLEAR     64  61  90 SE5       29.92S
6HR MIN TEMP:  64; 6HR MAX TEMP:  71;

CHICAGO-MIDWAY CLEAR     67  65  93 SE3       29.92S
6HR MIN TEMP:  67; 6HR MAX TEMP:  71;

AURORA         CLEAR     63  61  93 E6        29.92F FOG
6HR MIN TEMP:  63; 6HR MAX TEMP:  72;

LANSING*       CLEAR     62  62 100 CALM      29.93S FOG
JOLIET*        CLEAR     66  64  95 CALM      29.92S FOG
WAUKEGAN       FOG       58  58 100 CALM      29.91F VSB 3/4
6HR MIN TEMP:  58; 6HR MAX TEMP:  67;

DUPAGE AIRPORT CLEAR     62  61  96 CALM      29.92S FOG
6HR MIN TEMP:  62; 6HR MAX TEMP:  71;

KANKAKEE*      CLEAR     62  62  97 CALM      29.93S FOG
WHEELING       CLEAR     63  63 100 CALM      29.93F FOG
6HR MIN TEMP:  63; 6HR MAX TEMP:  69;

MORRIS*        CLEAR     64  62  94 E5        29.91S FOG
ROMEOVILLE*    CLEAR     64  62  94 SE6       29.92S FOG
NORTHERLY ISL    N/A     67  64  90 SE5         N/A
$$

LMZ740>746-200700-
SOUTHERN LAKE MICHIGAN

STATION/POSITION SKY/WX   TEMP    WIND        PRES    VSBY  WAVE
                          AIR SEA DIR/SP/G                  HT/PER
                          (F)     (DEG/KT/KT) (MB)    (MI)  (FT/S)
SOUTHERN BUOY              69 69  100/ 10/ 12 1013.2F         1
WILMETTE HARBOR            69 69  140/ 10/ 12   N/A           1/ 3
HARRISON CRIB              69     140/  9/ 10   N/A
CALUMET HARBOR                    110/  4/  5 1012.7F
BURNS HARBOR               68     160/  3/  5 1013.9S
MICHIGAN CITY              65     110/  5/  6   N/A
MICHIGAN CITY 6N           67 69  130/  4/  6   N/A           1
ST. JOSEPH                 67 69  170/  6/  8 1013.4          0
$$

ILZ025>027-034>036-040-047-049-050-058-095>099-200700-
WEST-CENTRAL ILLINOIS

CITY           SKY/WX    TMP DP  RH WIND       PRES   REMARKS
QUINCY         CLEAR     72  66  81 SE10      29.83S
GALESBURG*     CLEAR     67  63  87 E5        29.86F
MACOMB*        CLEAR     68  65  91 SE6       29.87F
JACKSONVILLE*  CLEAR     70  65  84 SE7       29.86S
PITTSFIELD*    CLEAR     70  67  90 SE5       29.86S
$$

ILZ028>032-037-038-041>044-048-051>054-059>061-200700-
CENTRAL ILLINOIS

CITY           SKY/WX    TMP DP  RH WIND       PRES   REMARKS
PONTIAC        CLEAR     64  64  97 CALM      29.92S FOG
BLOOMINGTON    CLEAR     67  63  87 SE9       29.92S
DECATUR        CLEAR     68  65  90 CALM      29.91S
PEORIA         CLEAR     71  64  78 SE8       29.88S
6HR MIN TEMP:  71; 6HR MAX TEMP:  76;

LACON*         CLEAR     65  63  93 SE3       29.88F FOG
LINCOLN*       CLEAR     67  65  94 SE3       29.89S
SPRINGFIELD    CLEAR     71  66  84 SE8       29.88S
6HR MIN TEMP:  71; 6HR MAX TEMP:  80;

TAYLORVILLE    CLEAR     68  65  90 SE6       29.89S
6HR MIN TEMP:  67; 6HR MAX TEMP:  78;

$$

ILZ033-039-045-046-055>057-062-063-200700-
EAST-CENTRAL ILLINOIS

CITY           SKY/WX    TMP DP  RH WIND       PRES   REMARKS
CHAMPAIGN      CLEAR     66  62  87 SE6       29.92S
RANTOUL*       CLEAR     67  65  94 CALM      29.92S
MATTOON        CLEAR     68  67  96 S5        29.91S
PARIS*         CLEAR     66  65  97 SE3       29.93S FOG
$$

ILZ079-100>102-200700-
SOUTHWEST ILLINOIS

CITY           SKY/WX    TMP DP  RH WIND       PRES   REMARKS
ALTON          CLEAR     70  68  94 SE6       29.88S
CAHOKIA*       CLEAR     75  68  78 SE7       29.88S
SPARTA*        CLEAR     71  68  89 SE3       29.91S
$$

ILZ064>066-069>071-074>076-080>082-084>086-088>090-092>094-200700-
SOUTH-CENTRAL ILLINOIS

CITY           SKY/WX    TMP DP  RH WIND       PRES   REMARKS
CARBONDALE     CLEAR     69  69 100 S3        29.91R
6HR MIN TEMP:  69; 6HR MAX TEMP:  76;

CAIRO*         CLEAR     68  68 100 CALM      29.91S FOG
EFFINGHAM*     CLEAR     70  69  96 SE5       29.93S
MARION         CLEAR     72  70  94 S3        29.93R
MT. VERNON       N/A     69  67  93 CALM      29.92R
CENTRALIA*     CLEAR     73  69  88 S6        29.90S
SALEM*         CLEAR     74  67  79 SE3       29.91S
METROPOLIS*    CLEAR     69  68  98 CALM      29.93R FOG
$$

ILZ067-068-072-073-078-083-087-091-200700-
SOUTHEAST ILLINOIS

CITY           SKY/WX    TMP DP  RH WIND       PRES   REMARKS
LAWRENCEVILLE  CLEAR     70  69  97 S5        29.92F FOG
FLORA*         CLEAR     69  67  93 CALM      29.92S
FAIRFIELD*     CLEAR     69  68  96 CALM      29.91S
HARRISBURG*    CLEAR     68  68  99 CALM      29.92S
ROBINSON*      CLEAR     63  63 100 CALM      29.93S FOG
CARMI*         CLEAR     65  65 100 SE3       29.92S FOG
$$

ABBREVIATIONS USED IN REMARKS
   TC - TEMPERATURE IN CELSIUS
  WCI - WIND CHILL INDEX
   HX - HEAT INDEX
  VSB - VISIBILITY
$$





USA.gov is the U.S. government's official web portal to all federal, state and local government web resources and services.